TimeAKST,TemperatureF,Dew PointF,Humidity,Sea Level PressureIn,VisibilityMPH,Wind Direction,Wind SpeedMPH,Gust SpeedMPH,PrecipitationIn,Events,Conditions,WindDirDegrees,DateUTC
12:54 AM,36.3,33.4,89,28.81,9.0,North,9.2,-,N/A,Rain,Light Rain,350,2014-01-01 09:54:00
1:54 AM,35.6,33.8,93,28.81,10.0,NNW,9.2,20.7,N/A,Rain,Light Rain,340,2014-01-01 10:54:00
2:54 AM,35.4,33.6,93,28.82,10.0,North,13.8,23.0,N/A,Rain,Light Rain,350,2014-01-01 11:54:00
3:54 AM,34.7,33.6,96,28.85,10.0,NNW,16.1,-,N/A,Rain,Light Rain,330,2014-01-01 12:54:00
4:54 AM,34.2,33.6,98,28.87,10.0,NNW,13.8,-,N/A,Rain,Light Rain,340,2014-01-01 13:54:00
5:54 AM,31.6,31.5,99,28.90,10.0,NNW,10.4,-,N/A,,Overcast,340,2014-01-01 14:54:00
6:54 AM,28.9,28.6,99,28.94,7.0,North,8.1,-,N/A,Snow,Light Snow,350,2014-01-01 15:54:00
7:54 AM,27.7,27.1,98,28.98,10.0,North,9.2,-,N/A,Snow,Light Snow,350,2014-01-01 16:54:00
8:54 AM,27.0,26.8,99,29.04,5.0,North,8.1,-,N/A,Snow,Light Snow,350,2014-01-01 17:54:00
9:54 AM,27.1,26.2,96,29.08,7.0,West,3.5,-,N/A,,Overcast,280,2014-01-01 18:54:00
10:48 AM,28.4,28.4,100,29.12,4.0,WSW,5.8,-,N/A,Snow,Light Snow,240,2014-01-01 19:48:00
10:54 AM,28.2,27.7,98,29.13,4.0,WSW,5.8,-,N/A,Snow,Light Snow,240,2014-01-01 19:54:00
11:00 AM,28.4,28.4,100,29.12,2.0,WSW,3.5,-,N/A,Snow,Light Snow,240,2014-01-01 20:00:00
11:54 AM,29.5,28.9,98,29.16,2.0,WSW,3.5,-,N/A,Snow,Light Snow,240,2014-01-01 20:54:00
12:54 PM,28.8,28.2,98,29.19,3.0,WSW,5.8,-,N/A,Snow,Light Snow,240,2014-01-01 21:54:00
1:54 PM,28.8,28.2,98,29.21,3.0,WSW,5.8,-,N/A,Snow,Light Snow,240,2014-01-01 22:54:00
2:01 PM,-9999,-9999,N/A,29.22,-9999.0,North,-9999.0,-,N/A,,Unknown,0,2014-01-01 23:01:00
2:47 PM,28.4,26.6,93,29.24,3.0,West,4.6,-,N/A,Snow,Light Snow,260,2014-01-01 23:47:00
2:54 PM,28.0,27.0,96,29.25,3.0,West,4.6,-,N/A,Snow,Light Snow,260,2014-01-01 23:54:00
3:54 PM,28.0,27.0,96,29.28,4.0,West,4.6,-,N/A,Snow,Light Snow,260,2014-01-02 00:54:00
4:18 PM,28.4,26.6,93,29.30,2.0,West,4.6,-,N/A,Snow,Light Snow,260,2014-01-02 01:18:00
4:54 PM,27.0,26.4,98,29.33,2.0,West,5.8,-,N/A,Snow,Light Snow,260,2014-01-02 01:54:00
5:54 PM,27.1,26.4,97,29.37,2.0,West,4.6,-,N/A,Snow,Light Snow,270,2014-01-02 02:54:00
6:08 PM,26.6,26.6,100,29.37,3.0,West,4.6,-,N/A,Snow,Light Snow,270,2014-01-02 03:08:00
6:54 PM,27.5,26.2,95,29.41,5.0,West,4.6,-,N/A,Snow,Light Snow,280,2014-01-02 03:54:00
7:54 PM,27.0,25.9,96,29.45,5.0,WSW,4.6,-,N/A,Snow,Light Snow,240,2014-01-02 04:54:00
8:54 PM,27.5,26.2,95,29.49,7.0,West,5.8,-,N/A,Snow,Light Snow,270,2014-01-02 05:54:00
9:54 PM,26.8,25.0,93,29.53,10.0,West,5.8,-,N/A,,Scattered Clouds,280,2014-01-02 06:54:00
10:54 PM,25.5,24.1,94,29.58,10.0,West,5.8,-,N/A,,Scattered Clouds,260,2014-01-02 07:54:00
11:54 PM,24.1,23.0,96,29.63,10.0,West,4.6,-,N/A,,Partly Cloudy,270,2014-01-02 08:54:00